[[{"header":{"parameterUnit":"m.s-1","parameterCategory":1,"la1":30.2991,"la2":30.254,"lo1":-89.0895,"lo2":-89.0444,"dy":0.0017,"dx":0.0017,"nx":28,"ny":28,"refTime":"2024-07-30T09:00:00:Z","depth":0,"parameterNumber":2,"parameterNumberName":"U-component_of_WINDS"},"data":[0,0,0,0,0,0,0,0,0,0,0,0,0,0,0,0,0,0,0,0,0,0,0,0,0,0,0,0,0,0,0,0,0,0,0,0,0,0,0,0,0,0,0,0,0,0,0,0,0,0,0,0,0,0,0,0,0,0,1.9072,1.9073,0,1.9142,1.9142,1.9143,1.9131,1.913,1.9129,1.9128,1.9198,1.9201,1.9204,0,0,0,0,0,0,0,0,0,0,0,0,0,1.8926,1.8929,1.9072,1.9073,1.9074,1.9142,1.9142,1.9143,1.9131,1.913,1.9128,1.9127,1.9197,1.9201,1.9205,0,0,0,0,0,0,0,0,0,0,0,0,0,1.8992,1.893,1.9072,1.9076,1.9077,1.9141,1.9142,1.9144,1.9132,1.913,1.9128,1.9126,1.9196,1.9201,1.9205,1.927,0,0,1.9219,1.9221,0,0,0,0,0,0,0,0,1.8988,1.8997,1.9074,1.9076,1.9077,1.9126,1.9117,1.9186,1.9132,1.9111,1.9128,1.9125,1.9176,1.9182,1.9199,1.9273,1.9276,1.9219,1.9222,1.9224,1.9225,0,0,0,0,0,0,0,1.8984,1.8994,1.9099,1.9076,1.9077,1.9073,1.9081,1.913,1.9153,1.9113,1.9112,1.912,1.9176,1.9195,1.9201,1.9277,1.9219,1.9223,1.9226,1.9228,1.9404,1.9406,0,0,0,0,0,0,1.8978,1.8991,1.9097,1.9102,1.9027,1.9078,1.9086,1.9112,1.9152,1.9157,1.9122,1.912,1.9188,1.9195,1.9203,1.9279,1.9224,1.9228,1.9231,1.9402,1.9405,1.9407,0,0,0,0,0,0,1.8975,1.8988,1.9094,1.9046,1.9059,1.9082,1.9112,1.9114,1.9133,1.9159,1.9163,1.9137,1.9187,1.9197,1.9252,1.9281,1.923,1.9235,1.94,1.9403,1.9406,1.9432,0,0,0,0,0,0,1.8971,1.8987,1.9012,1.9047,1.9062,1.9144,1.9113,1.9117,1.9141,1.9138,1.9174,1.9178,1.9186,1.9246,1.9257,1.9286,1.9238,1.9397,1.9401,1.9405,1.9429,1.9436,1.9442,0,0,0,0,0,1.8966,1.9018,1.9014,1.9027,1.9094,1.9145,1.9154,1.9162,1.9143,1.9168,1.9185,1.9177,1.9276,1.9252,1.9264,1.9295,1.9396,1.94,1.9405,1.9426,1.9435,1.9442,0,0,0,0,0,0,1.8987,1.9022,1.9018,1.9083,1.9111,1.9143,1.9175,1.9171,1.9205,1.9202,1.921,1.9218,1.9274,1.9291,1.9262,1.9358,1.9333,1.934,1.9345,1.9354,1.936,1.9354,1.9242,0,0,0,0,0,1.8999,1.9038,1.9067,1.9121,1.9135,1.9153,1.9175,1.9179,1.9208,1.922,1.9241,1.927,1.9307,1.9331,1.9367,1.9432,1.9438,1.9459,1.9465,1.947,1.9476,1.9508,1.9517,1.9421,1.9421,1.9421,0,0,1.9024,1.9048,1.9073,1.9125,1.9148,1.9187,1.9163,1.9206,1.9234,1.9227,1.928,1.9296,1.9328,1.9388,1.9415,1.9403,1.9504,1.9476,1.948,1.9483,1.9514,1.9523,1.9531,1.9424,1.9424,1.9423,0,0,1.909,1.9113,1.9159,1.9182,1.9215,1.9226,1.9237,1.927,1.928,1.9334,1.9328,1.9362,1.9427,1.9449,1.9469,1.954,1.9534,1.9552,1.9585,1.9616,1.9624,1.963,1.9653,1.9662,1.9558,1.9558,1.9558,0,1.9117,1.9176,1.9184,1.9226,1.9249,1.9243,1.9289,1.931,1.9354,1.9369,1.9355,1.9435,1.9456,1.9519,1.9536,1.9554,1.9565,1.9547,1.9622,1.9629,1.9635,1.9657,1.9666,1.956,1.9559,1.9559,1.9559,0,1.9206,1.9247,1.928,1.9322,1.9348,1.9392,1.9405,1.9431,1.9432,1.9444,1.9497,1.9522,1.9562,1.9578,1.958,1.9641,1.9632,1.962,1.9595,1.9646,1.9667,1.9675,1.9562,1.9562,1.9561,1.9561,0,0,1.9288,1.9331,1.9343,1.9361,1.9396,1.9428,1.9471,1.9509,1.953,1.956,1.9595,1.9649,1.9637,1.966,1.9664,1.9691,1.9743,1.9676,1.9677,1.9685,1.9809,1.9816,1.9826,1.9739,1.9741,1.9742,1.9805,0,1.9355,1.9431,1.9438,1.9506,1.9542,1.9536,1.9573,1.9598,1.961,1.9642,1.9655,1.9692,1.9676,1.9689,1.9716,1.9731,1.9768,1.9727,1.977,1.9772,1.976,1.9837,1.9846,1.9904,1.9814,1.9815,1.9816,0,1.9444,1.9475,1.9546,1.9574,1.959,1.9623,1.9657,1.9689,1.9716,1.9723,1.9747,1.9747,1.9789,1.9763,1.982,1.9792,1.9811,1.982,1.9823,1.9826,1.9796,1.984,1.9923,1.9931,1.983,1.9829,1.9828,0,1.9493,1.9553,1.9603,1.9618,1.9653,1.9676,1.9691,1.9717,1.9739,1.9769,1.9783,1.9818,1.9836,1.9863,1.9871,1.9852,1.9927,1.9903,1.9933,1.9932,1.9948,1.9947,2.0033,1.9963,1.9963,1.9962,1.9962,0,1.9566,1.9609,1.9625,1.9655,1.9702,1.9709,1.9756,1.977,1.9793,1.9825,1.9822,1.9852,1.9862,1.9893,1.99,1.9945,1.9954,1.996,1.9961,1.9959,1.9958,1.997,1.9965,1.9965,1.9964,1.9964,1.9963,0,1.9628,1.9641,1.9694,1.9722,1.973,1.9763,1.9787,1.9815,1.9826,1.9866,1.9876,1.9893,1.993,1.9941,1.9985,1.9989,2.0041,2.004,2.0032,2.0031,2.006,2.0056,2.0155,2.0168,2.0091,2.0092,2.0093,0,1.9674,1.9706,1.9737,1.9758,1.9775,1.9809,1.9831,1.9838,1.9861,1.9894,1.9918,1.9953,1.9982,2.004,2.0056,2.0089,2.0087,2.0119,2.0092,2.0088,2.0085,2.0082,2.0084,2.0124,2.0125,2.0126,2.0126,0,1.9751,1.9755,1.9787,1.982,1.9846,1.9873,1.9898,1.9916,1.9927,1.9952,1.9989,2.0011,2.0055,2.009,2.0123,2.0138,2.0133,2.0135,2.0143,2.0141,2.0134,2.0136,2.0044,2.0132,2.0132,2.0131,2.0131,2.0131,1.9805,1.9833,1.9858,1.9893,1.9913,1.9936,1.9963,1.9977,2.0008,2.0044,2.0047,2.0086,2.011,2.0154,2.0171,2.0201,2.0191,2.0204,2.0207,2.0209,2.021,2.013,2.0207,2.0207,2.0207,2.0207,2.0207,0,1.9881,1.9896,1.9928,1.9963,1.999,1.9984,2.0011,2.0033,2.0068,2.0091,2.0119,2.016,2.0193,2.0211,2.0244,2.0264,2.0263,2.0272,2.027,2.0273,2.0218,2.0207,2.0273,2.0273,2.0273,2.0273,2.0273,2.0273,1.9923,1.9969,1.9975,2.003,2.0046,2.0084,2.0099,2.012,2.0139,2.0184,2.0212,2.0223,2.0244,2.0277,2.0307,2.0311,2.0322,2.0333,2.0336,2.0284,2.0277,2.0271,2.026,2.0336,2.0336,2.0388,2.0388,2.0388]},{"header":{"parameterUnit":"m.s-1","parameterCategory":1,"la1":30.2991,"la2":30.254,"lo1":-89.0895,"lo2":-89.0444,"dy":0.0017,"dx":0.0017,"nx":28,"ny":28,"refTime":"2024-07-30T09:00:00:Z","depth":0,"parameterNumber":3,"parameterNumberName":"V-component_of_WINDS"},"data":[0,0,0,0,0,0,0,0,0,0,0,0,0,0,0,0,0,0,0,0,0,0,0,0,0,0,0,0,0,0,0,0,0,0,0,0,0,0,0,0,0,0,0,0,0,0,0,0,0,0,0,0,0,0,0,0,0,0,4.1881,4.1882,0,4.1929,4.193,4.193,4.1887,4.1886,4.1884,4.1882,4.1927,4.1929,4.1932,0,0,0,0,0,0,0,0,0,0,0,0,0,4.1747,4.175,4.1881,4.1882,4.1883,4.1929,4.193,4.193,4.1888,4.1885,4.1883,4.1881,4.1926,4.1929,4.1932,0,0,0,0,0,0,0,0,0,0,0,0,0,4.1801,4.1751,4.1881,4.1867,4.1866,4.1929,4.193,4.1931,4.1888,4.1885,4.1883,4.188,4.1925,4.1929,4.1933,4.2011,0,0,4.1946,4.1948,0,0,0,0,0,0,0,0,4.1798,4.1806,4.1868,4.1868,4.1867,4.19,4.1899,4.1957,4.1889,4.188,4.1882,4.1879,4.192,4.1924,4.1939,4.2013,4.2015,4.1946,4.1949,4.1951,4.1952,0,0,0,0,0,0,0,4.1794,4.1804,4.19,4.1869,4.1869,4.1856,4.1861,4.191,4.1913,4.188,4.1877,4.1884,4.1919,4.1935,4.1939,4.2016,4.1946,4.195,4.1952,4.1954,4.2154,4.2157,0,0,0,0,0,0,4.1793,4.1801,4.1899,4.1901,4.1826,4.1861,4.1866,4.1892,4.1913,4.1914,4.1886,4.1881,4.1929,4.1934,4.1941,4.2032,4.1951,4.1954,4.1957,4.2152,4.2155,4.2158,0,0,0,0,0,0,4.179,4.1802,4.1897,4.185,4.1862,4.1866,4.1895,4.1894,4.191,4.1917,4.1917,4.1902,4.1927,4.1935,4.1994,4.2033,4.1956,4.196,4.2148,4.2153,4.2157,4.2216,0,0,0,0,0,0,4.1787,4.1801,4.1833,4.1852,4.1864,4.1951,4.1898,4.1897,4.1918,4.1913,4.1932,4.1933,4.1925,4.1988,4.1998,4.2037,4.1963,4.2145,4.215,4.2155,4.2211,4.2222,4.2232,0,0,0,0,0,4.1782,4.1847,4.1834,4.1846,4.1904,4.1953,4.196,4.1952,4.1921,4.1952,4.1956,4.1932,4.2027,4.1994,4.2005,4.2047,4.2142,4.2149,4.2155,4.2206,4.222,4.2231,0,0,0,0,0,0,4.1831,4.1849,4.1835,4.1909,4.193,4.1946,4.1984,4.1967,4.1996,4.1989,4.1976,4.1981,4.2043,4.2051,4.2013,4.2122,4.208,4.2088,4.2115,4.2128,4.2138,4.2134,4.1967,0,0,0,0,0,4.1851,4.1891,4.1904,4.1968,4.1979,4.198,4.2001,4.1993,4.2013,4.2021,4.203,4.205,4.2083,4.2106,4.2138,4.2212,4.2214,4.2246,4.2256,4.2265,4.2272,4.231,4.2323,4.2179,4.2179,4.2179,0,0,4.1891,4.1906,4.1932,4.1978,4.1993,4.2033,4.1987,4.2032,4.2061,4.2028,4.2084,4.2091,4.2112,4.2178,4.2208,4.2186,4.2313,4.2273,4.2279,4.2282,4.2317,4.2331,4.2343,4.2183,4.2182,4.2181,0,0,4.1985,4.2002,4.2056,4.2072,4.2096,4.2096,4.2109,4.2127,4.2131,4.2187,4.2162,4.2196,4.2256,4.2271,4.2286,4.2385,4.2364,4.2396,4.245,4.2486,4.2498,4.2508,4.2541,4.2554,4.2403,4.2403,4.2404,0,4.2032,4.2094,4.2085,4.2132,4.2151,4.2124,4.2177,4.2193,4.2225,4.2239,4.2215,4.2288,4.23,4.2369,4.2393,4.2407,4.242,4.2393,4.2497,4.2507,4.2516,4.2548,4.2561,4.2407,4.2407,4.2406,4.2406,0,4.2149,4.2192,4.2232,4.2265,4.2289,4.2339,4.2336,4.2361,4.2351,4.2353,4.2409,4.2423,4.2456,4.2472,4.2462,4.2539,4.2525,4.2499,4.2456,4.2534,4.2563,4.2576,4.2412,4.2411,4.241,4.2409,0,0,4.2275,4.2303,4.2318,4.2332,4.2356,4.2388,4.2435,4.2469,4.249,4.2513,4.2551,4.2602,4.2578,4.2596,4.2587,4.262,4.2695,4.259,4.259,4.2607,4.2778,4.2796,4.281,4.2681,4.2683,4.2685,4.2776,0,4.2369,4.2453,4.2446,4.2525,4.2562,4.2537,4.2577,4.2596,4.2598,4.2629,4.2632,4.2667,4.2634,4.2645,4.2676,4.2679,4.2728,4.2672,4.2714,4.2716,4.2709,4.2826,4.2845,4.293,4.2787,4.2789,4.2791,0,4.249,4.2518,4.2601,4.2618,4.2633,4.2671,4.27,4.2731,4.275,4.2749,4.2769,4.2754,4.28,4.2756,4.2818,4.278,4.2796,4.28,4.2803,4.2806,4.2757,4.283,4.2957,4.297,4.2809,4.2808,4.2806,0,4.2571,4.263,4.2687,4.27,4.2722,4.2748,4.2758,4.2775,4.2795,4.282,4.2833,4.2863,4.2879,4.2902,4.2894,4.2864,4.2956,4.2913,4.2956,4.2956,4.2975,4.2974,4.3106,4.2989,4.2988,4.2988,4.2988,0,4.2676,4.2727,4.2724,4.2758,4.2814,4.2805,4.286,4.2866,4.2881,4.2915,4.2894,4.2926,4.2915,4.2946,4.2941,4.2991,4.2999,4.2998,4.2996,4.3,4.3,4.3009,4.3003,4.2991,4.2991,4.299,4.299,0,4.2776,4.2776,4.2836,4.2852,4.2857,4.2897,4.291,4.2941,4.2942,4.2985,4.2995,4.2996,4.3031,4.3026,4.3065,4.3061,4.3124,4.3115,4.3118,4.3115,4.3158,4.3153,4.3299,4.3317,4.319,4.3191,4.3192,0,4.2843,4.2881,4.2901,4.2923,4.2935,4.2971,4.2991,4.2983,4.3005,4.3029,4.3058,4.3091,4.3117,4.3174,4.3177,4.3207,4.3197,4.3247,4.3202,4.3203,4.3196,4.3193,4.3196,4.3255,4.3256,4.3258,4.3259,0,4.2959,4.2957,4.2989,4.302,4.3045,4.3069,4.3091,4.3109,4.3103,4.3128,4.3165,4.3185,4.3225,4.3258,4.3285,4.3293,4.3274,4.3273,4.3284,4.3287,4.3287,4.3286,4.314,4.3269,4.3268,4.3267,4.3267,4.3266,4.3043,4.3076,4.3095,4.313,4.3146,4.3166,4.3196,4.3201,4.3232,4.3264,4.3257,4.3297,4.3314,4.3349,4.336,4.339,4.3372,4.3388,4.3392,4.3396,4.34,4.3283,4.3395,4.3395,4.3395,4.3394,4.3394,0,4.3157,4.3168,4.3201,4.3232,4.3259,4.3241,4.3263,4.3286,4.3323,4.334,4.3367,4.3407,4.3439,4.3445,4.3474,4.3497,4.3489,4.3505,4.3502,4.3504,4.3416,4.3403,4.3511,4.3511,4.3511,4.3511,4.3511,4.3511,4.322,4.3274,4.3274,4.3334,4.3344,4.3384,4.3399,4.3416,4.343,4.3477,4.3504,4.3508,4.352,4.355,4.3577,4.3578,4.3589,4.3608,4.3605,4.3522,4.3511,4.3499,4.3487,4.3611,4.3611,4.3691,4.3691,4.3692]}]]